Regional Weather Roundup
Issued by NWS Midland/Odessa, TX

Home | Current Version | Previous Version | Text Only | Print | Product List | Glossary On
Versions: 1 2 3 4 5 6 7 8 9 10 11 12 13 14 15 16 17 18 19 20 21 22 23 24 25 26 27 28 29 30 31 32 33 34 35 36 37 38 39 40 41 42 43 44 45 46 47 48 49 50
000
ASUS44 KMAF 021010
RWRMAF
MIDLAND AREA WEATHER ROUNDUP
NATIONAL WEATHER SERVICE MIDLAND TX
500 AM CDT THU OCT 02 2014

...IN SOUTHWEST TEXAS AND SOUTHEAST NEW MEXICO...

CITY           SKY/WX    TMP DP  RH WIND       PRES   REMARKS
ALPINE         CLEAR     64  44  49 SW9       30.03R
ANDREWS        FAIR      66  62  87 SW10      29.86S
ARTESIA        NOT AVBL
BIG SPRING     CLEAR     74  65  74 SW6       29.86R
CARLSBAD       CLEAR     63  41  44 W7        29.87R
DRYDEN           N/A     70  65  84 N7        29.82R
FORT STOCKTON  PTCLDY    67  48  50 SW7       29.87R
GUAD PASS      CLEAR     59  36  42 SW12      30.03R
HOBBS          CLEAR     61  41  48 W8        29.88R
MARFA          CLEAR     54  45  71 NE5       30.03R
MIDLAND AIRPK  CLEAR     72  63  73 SW9       29.85S
MIDLAND INTL   CLEAR     71  63  75 SW12      29.85R
ODESSA         CLEAR     70  62  76 SW10      29.86S
PECOS          CLEAR     61  49  65 SW3       29.85S
PRESIDIO       FAIR      69  51  53 N5        29.88S
SEMINOLE       CLEAR     57  53  86 SW7       29.86S
SNYDER         CLEAR     70  64  82 S8        29.83S
WINK           CLEAR     61  56  83 N3        29.84S
$$
...OTHER STATIONS IN TEXAS...

CITY           SKY/WX    TMP DP  RH WIND       PRES   REMARKS
ABILENE        PTCLDY    77  65  66 S17       29.78F
AMARILLO       CLEAR     57  47  69 NW23G32   29.87R
AUSTIN         MOCLDY    79  75  87 S9        29.81S
BROWNSVILLE    CLEAR     81  81 100 S9        29.81F
CORPUS CHRISTI MOCLDY    81  78  91 S8        29.81S
DALLAS FTW     PTCLDY    78  70  76 S13       29.77R
DEL RIO        CLOUDY    77  72  84 E8        29.79S
EL PASO        CLEAR     71  35  26 NW10      29.96S
HOUSTON INT    MOCLDY    80  78  94 S6        29.85R
LUBBOCK        CLEAR     59  46  62 W7        29.81S
SAN ANGELO     CLEAR     76  67  73 S15       29.79F
SAN ANTONIO    CLOUDY    80  74  81 S9        29.83S
WACO           CLOUDY    79  72  79 S12       29.80S
WICHITA FALLS  NOT AVBL
$$
...OTHER LOCATIONS IN NEW MEXICO...

CITY           SKY/WX    TMP DP  RH WIND       PRES   REMARKS
ALAMAGORDO     CLEAR     57  36  44 NE6       29.97S
ALBUQUERQUE    PTCLDY    57  36  45 NW13      30.07R
CANNON AFB     PTCLDY    58  41  52 N14       29.89R
CLOVIS           N/A     57  43  58 N12       29.92R
HOLLOMAN AFB   CLEAR     55  38  52 CALM      29.95S
ROSWELL        CLEAR     52  45  77 W6        29.89S
RUIDOSO        CLEAR     55  32  41 NW10      30.09S
SANTA FE       PTCLDY    47  36  65 N10       30.06S
TRUTH OR CONSE CLEAR     62  35  36 NW8       30.02R
TUCUMCARI      MOCLDY    61  40  45 NE13      29.89R
$$


USA.gov is the U.S. government's official web portal to all federal, state and local government web resources and services.